Canby, MN

7:33 AM CDT on March 28, 2017 (GMT -0500)
Canby

Weather History for KCNB - January, 2013

Change the Weather History Date:

Wednesday, January 16, 2013

  Actual Average (KMML) Record (KMML)
Temperature  
Mean Temperature 20 °F -  
Max Temperature 37 °F 24 °F 45 °F (1974)
Min Temperature 3 °F 1 °F -28 °F (1972)
Degree Days  
Heating Degree Days 45    
Moisture  
Dew Point 19 °F    
Average Humidity 81    
Maximum Humidity 93    
Minimum Humidity 57    
Precipitation  
Precipitation 0.00 in - - ()
Sea Level Pressure  
Sea Level Pressure 29.92 in    
Wind  
Wind Speed 15 mph (WNW)    
Max Wind Speed 22 mph    
Max Gust Speed 30 mph    
Visibility 10 miles    
Events Snow    
Averages and records for this station are not official NWS values.
T = Trace of Precipitation, MM = Missing Value Source: NWS Daily Summary

Daily Weather History Graph

Daily Weather History Graph

Search for Another Location

Airport or City:

Trip Planner

Search our weather history database for the weather conditions in past years. The results will help you decide how hot, cold, wet, or windy it might be!

Date:

Astronomy

Jan. 16, 2013 Rise Set
Actual Time 7:58 AM CST 5:12 PM CST
Civil Twilight 7:25 AM CST 5:44 PM CST
Nautical Twilight 6:49 AM CST 6:20 PM CST
Astronomical Twilight 6:14 AM CST 6:55 PM CST
Moon 10:19 AM CST (1/16) 11:22 PM CST (1/16)
Length of Visible Light 10h 19m
Length of Day
9h 14m
Waxing Crescent, 28% of the Moon is Illuminated
Jan 16
Waxing Crescent
Jan 18
First Quarter
Jan 26
Full
Feb 3
Last Quarter
Feb 10
New

Hourly Weather History & Observations

Time (CST) Temp. Windchill Dew Point Humidity Pressure Visibility Wind Dir Wind Speed Gust Speed Precip Events Conditions
12:15 AM 28.4 °F 17.0 °F 19.2 °F 69% 29.71 in 10.0 mi SW 15.0 mph - N/A   Overcast
12:35 AM 29.3 °F 19.1 °F 22.1 °F 75% 29.72 in 10.0 mi SW 12.7 mph 20.7 mph N/A   Overcast
12:56 AM 29.1 °F 18.9 °F 24.1 °F 81% 29.72 in 10.0 mi WSW 12.7 mph 17.3 mph N/A   Overcast
1:16 AM 30.2 °F 17.4 °F 25.7 °F 83% 29.71 in 10.0 mi WSW 20.7 mph - N/A   Overcast
1:36 AM 30.6 °F 19.8 °F 26.6 °F 85% 29.70 in 10.0 mi SW 15.0 mph 21.9 mph N/A   Overcast
1:55 AM 31.1 °F 18.9 °F 27.9 °F 88% 29.67 in 10.0 mi WSW 19.6 mph 23.0 mph N/A   Overcast
2:16 AM 31.6 °F 19.7 °F 28.4 °F 88% 29.67 in 10.0 mi WSW 19.6 mph 27.6 mph N/A   Overcast
2:36 AM 32.0 °F 19.5 °F 28.9 °F 88% 29.68 in 10.0 mi WSW 21.9 mph 29.9 mph N/A   Overcast
2:56 AM 32.5 °F 20.5 °F 29.8 °F 90% 29.68 in 10.0 mi WSW 20.7 mph 27.6 mph N/A   Overcast
3:15 AM 33.3 °F 22.5 °F 30.9 °F 91% 29.68 in 10.0 mi WSW 17.3 mph 23.0 mph N/A   Overcast
3:36 AM 34.0 °F 22.4 °F 31.6 °F 91% 29.68 in 10.0 mi WSW 20.7 mph - N/A   Overcast
3:55 AM 34.7 °F 23.1 °F 32.0 °F 90% 29.69 in 10.0 mi West 21.9 mph 26.5 mph N/A   Overcast
4:15 AM 35.1 °F 24.8 °F 32.0 °F 89% 29.68 in 10.0 mi West 17.3 mph 25.3 mph N/A   Overcast
4:36 AM 35.6 °F 25.5 °F 32.4 °F 88% 29.68 in 10.0 mi West 17.3 mph 21.9 mph N/A   Overcast
4:55 AM 36.3 °F 25.5 °F 32.4 °F 86% 29.68 in 10.0 mi West 20.7 mph - N/A   Overcast
5:15 AM 35.8 °F 26.5 °F 32.0 °F 86% 29.68 in 10.0 mi West 15.0 mph - N/A   Scattered Clouds
5:36 AM 35.8 °F 26.1 °F 32.0 °F 86% 29.70 in 10.0 mi West 16.1 mph 21.9 mph N/A   Scattered Clouds
5:55 AM 36.7 °F 26.6 °F 32.0 °F 83% 29.70 in 10.0 mi West 18.4 mph 24.2 mph N/A   Overcast
6:36 AM 35.6 °F 27.1 °F 31.8 °F 86% 29.71 in 10.0 mi West 12.7 mph - N/A   Scattered Clouds
6:56 AM 34.9 °F 26.6 °F 31.6 °F 88% 29.73 in 10.0 mi West 11.5 mph - N/A   Clear
7:16 AM 34.9 °F 27.1 °F 31.8 °F 89% 29.73 in 10.0 mi West 10.4 mph - N/A   Mostly Cloudy
7:35 AM 34.9 °F 27.7 °F 31.8 °F 89% 29.74 in 10.0 mi West 9.2 mph - N/A   Overcast
7:55 AM 34.9 °F 26.6 °F 32.0 °F 89% 29.75 in 10.0 mi West 11.5 mph - N/A   Overcast
8:16 AM 35.1 °F 26.9 °F 32.0 °F 89% 29.75 in 10.0 mi West 11.5 mph - N/A   Overcast
8:35 AM 35.2 °F 26.2 °F 32.0 °F 88% 29.75 in 10.0 mi West 13.8 mph - N/A   Overcast
8:55 AM 35.2 °F 26.6 °F 32.0 °F 88% 29.76 in 10.0 mi WSW 12.7 mph - N/A   Overcast
9:16 AM 35.1 °F 26.4 °F 32.0 °F 89% 29.77 in 10.0 mi WSW 12.7 mph 17.3 mph N/A   Overcast
9:36 AM 35.6 °F 26.6 °F 32.0 °F 87% 29.77 in 10.0 mi WSW 13.8 mph - N/A   Overcast
9:56 AM 36.0 °F 27.1 °F 32.0 °F 86% 29.78 in 10.0 mi West 13.8 mph - N/A   Overcast
10:15 AM 36.1 °F 26.5 °F 32.0 °F 85% 29.77 in 10.0 mi WSW 16.1 mph - N/A   Overcast
10:36 AM 36.5 °F 27.0 °F 32.2 °F 84% 29.78 in 10.0 mi WSW 16.1 mph 20.7 mph N/A   Overcast
10:56 AM 37.0 °F 28.1 °F 32.5 °F 84% 29.78 in 10.0 mi West 15.0 mph - N/A   Overcast
11:16 AM 36.9 °F 28.2 °F 32.5 °F 84% 29.79 in 10.0 mi West 13.8 mph - N/A   Overcast
11:35 AM 36.7 °F 28.9 °F 32.5 °F 85% 29.80 in 10.0 mi West 11.5 mph - N/A   Overcast
11:55 AM 36.3 °F 29.5 °F 32.9 °F 87% 29.80 in 10.0 mi West 9.2 mph - N/A   Light Drizzle
12:15 PM 30.4 °F 18.0 °F 28.6 °F 93% 29.83 in 1.2 mi North 19.6 mph 24.2 mph N/A Snow Light Snow
12:35 PM 27.3 °F 16.1 °F 25.5 °F 93% 29.85 in 2.0 mi NNW 13.8 mph 19.6 mph N/A Snow Light Snow
12:56 PM 25.9 °F 14.3 °F 23.4 °F 90% 29.86 in 7.0 mi NNW 13.8 mph 20.7 mph N/A   Overcast
1:16 PM 25.2 °F 12.4 °F 22.6 °F 90% 29.88 in 10.0 mi NNW 16.1 mph 19.6 mph N/A   Overcast
1:35 PM 24.3 °F 12.2 °F 21.4 °F 89% 29.90 in 10.0 mi NNW 13.8 mph - N/A   Overcast
2:16 PM 21.6 °F 8.8 °F 18.0 °F 86% 29.94 in 10.0 mi NNW 13.8 mph 21.9 mph N/A   Overcast
2:35 PM 21.2 °F 6.8 °F 17.8 °F 87% 29.95 in 10.0 mi NNW 17.3 mph 24.2 mph N/A   Overcast
2:56 PM 20.7 °F 7.1 °F 17.1 °F 86% 29.99 in 10.0 mi NW 15.0 mph - N/A   Overcast
3:16 PM 20.1 °F 5.4 °F 16.3 °F 85% 30.01 in 10.0 mi NNW 17.3 mph 20.7 mph N/A   Overcast
3:36 PM 20.1 °F 6.4 °F 16.2 °F 85% 30.02 in 10.0 mi NNW 15.0 mph 21.9 mph N/A   Overcast
3:55 PM 19.4 °F 5.5 °F 15.4 °F 85% 30.04 in 10.0 mi NNW 15.0 mph 18.4 mph N/A   Overcast
4:16 PM 18.3 °F 3.6 °F 14.0 °F 83% 30.06 in 7.0 mi NNW 16.1 mph 20.7 mph N/A   Scattered Clouds
4:36 PM 16.5 °F 2.4 °F 9.3 °F 73% 30.08 in 10.0 mi NNW 13.8 mph 21.9 mph N/A   Scattered Clouds
4:56 PM 15.8 °F -0.2 °F 7.7 °F 70% 30.09 in 10.0 mi NNW 17.3 mph 20.7 mph N/A   Scattered Clouds
5:16 PM 13.5 °F -4.2 °F 2.1 °F 61% 30.11 in 10.0 mi NNW 19.6 mph 26.5 mph N/A   Clear
5:56 PM 10.9 °F -5.9 °F -1.5 °F 57% 30.15 in 10.0 mi NNW 16.1 mph 23.0 mph N/A   Clear
6:15 PM 10.8 °F -4.3 °F 0.1 °F 62% 30.16 in 10.0 mi NNW 12.7 mph - N/A   Clear
6:35 PM 10.6 °F -4.5 °F 2.8 °F 71% 30.18 in 10.0 mi NNW 12.7 mph 17.3 mph N/A   Clear
6:56 PM 10.4 °F -4.8 °F 4.1 °F 76% 30.20 in 10.0 mi NW 12.7 mph - N/A   Clear
7:16 PM 10.0 °F -2.9 °F 4.1 °F 77% 30.20 in 10.0 mi NNW 9.2 mph - N/A   Clear
7:35 PM 9.5 °F -5.2 °F 2.3 °F 73% 30.22 in 10.0 mi NW 11.5 mph - N/A   Clear
7:55 PM 9.0 °F -5.1 °F 1.2 °F 71% 30.24 in 10.0 mi NNW 10.4 mph - N/A   Clear
8:16 PM 8.4 °F -7.3 °F 2.1 °F 76% 30.23 in 10.0 mi NNW 12.7 mph 17.3 mph N/A   Clear
8:55 PM 7.2 °F -6.4 °F -0.4 °F 71% 30.25 in 10.0 mi WNW 9.2 mph - N/A   Clear
9:16 PM 6.6 °F -5.0 °F -0.6 °F 72% 30.25 in 10.0 mi NW 6.9 mph - N/A   Clear
9:35 PM 6.4 °F -6.3 °F -0.4 °F 74% 30.25 in 10.0 mi WNW 8.1 mph - N/A   Clear
9:56 PM 5.9 °F -8.0 °F -1.3 °F 72% 30.26 in 10.0 mi NW 9.2 mph - N/A   Clear
10:15 PM 5.9 °F -5.8 °F -2.4 °F 69% 30.27 in 10.0 mi NW 6.9 mph - N/A   Clear
10:35 PM 5.4 °F -7.6 °F -4.0 °F 65% 30.27 in 10.0 mi NW 8.1 mph - N/A   Clear
10:55 PM 4.8 °F -8.3 °F -4.9 °F 64% 30.28 in 10.0 mi WNW 8.1 mph - N/A   Clear
11:15 PM 4.1 °F -6.7 °F -4.4 °F 68% 30.27 in 10.0 mi NNW 5.8 mph - N/A   Clear
11:36 PM 3.9 °F -6.9 °F -4.5 °F 68% 30.27 in 10.0 mi NNW 5.8 mph - N/A   Clear
11:56 PM 3.7 °F -5.5 °F -4.9 °F 67% 30.28 in 10.0 mi NW 4.6 mph - N/A   Clear